Погода в Казани

Хотите узнать прогноз погоды в Казани? Тогда Вам сюда: Погода в Казани

Поиск расширенной информации на нашем сайте:

Полезная информация:

Новости сайта



02.01.2020
Опубликован Долгосрочный прогноз погоды по городам России и ближнего зарубежья на январь 2020 года.
Карты: Прогноз на январь и февраль 2020 года, Сравнение прогнозируемой аномалии приземной температуры воздуха на январь 2020 года по разным моделям.




Погода в Казани - сегодня

Время (UTC), дата Ветер
(°,м/с) 
Видим.   Явления Облачность Т
(°С)
Тd
(°С)
f(%) Тe
(°С)
Pmin
(гПа)
dP
(гПа)
Po
(мм)
O2
(г/м3)
Тmin Tmax R s Состояние
почвы
18 24.02.21 тихо ()   10 км    3/0 верхняя 
[Ci fib]
-19.7 -23.8 70 -20  1034.6  -0.3  764  333           
21 24.02.21 300 (СЗ) 10 км    ясно 
-21.6 -24.1 80 -25  1034.1  -0.5  764  336           
00 25.02.21 тихо ()   10 км    6/0 верхняя 
[Ci sp]
-23.1 -25.1 84 -23  1033.1  -1.1  763  337           
03 25.02.21 тихо ()   10 км    8/0 верхняя 
[Ci sp]
-24.3 -26.6 81 -24  1031.5  -1.6  761  339  -24.8      49  равномерный
сухой снег
100% 
06 25.02.21 140 (ЮВ) 10 км    10/0 средняя 
[As op]
-22.6 -25.4 78 -26  1028.7  -2.7  759  335  -24.8         
09 25.02.21 140 (ЮВ) 10 км    10/0 средняя 
[As op]
-20 -23.6 73 -24  1025.5  -3  757  331           
12 25.02.21 120 (ЮВ) 4000 м  слаб. снег  10/10 300 м 
[Ns]
-18.1 -20.9 79 -21  1021.5  -3.8  754  327           
15 25.02.21 150 (ЮВ) 3{10}  4000 м  слаб. снег  10/10 300 м 
[Ns]
-17.5 -20.1 80 -21  1019.6  -1.8  753  326    -17.3     
18 25.02.21 140 (ЮВ) 10 км  слаб. снег  10/10 300 м 
[Ns]
-17.3 -19.7 82 -21  1017.7  -1.8  752  325           
21 25.02.21 120 (ЮВ) 10 км  слаб. снег  10/10 300 м 
[Ns]
-18.3 -21 79 -21  1017.8  752  326           
00 26.02.21 130 (ЮВ) 10 км  слаб. снег  10/10 300 м 
[Ns]
-17.9 -20.8 78 -20  1017.2  -0.5  751  325           
03 26.02.21 110 (В) 10 км  {снег}  3/1 300 м средняя 
[Sc diur, vesp|Ac trans]
-18.6 -20.9 82 -19  1016.7  -0.5  751  326  -18.6    0.7  50  равномерный
сухой снег
100% 
06 26.02.21 120 (ЮВ) 10 км  {снег}  3/0 верхняя 
[Ci fib]
-17.3 -20.7 75 -20  1016.2  -0.4  750  324  -19.1         
09 26.02.21 130 (ЮВ) 10 км    6/0 верхняя 
[Ci fib]
-14.7 -18.8 71 -18  1015.4  -0.7  750  321           
12 26.02.21 130 (ЮВ) 10 км  слаб. снег  10/0 средняя 
[As op]
-13.3 -16.3 78 -17  1013  -2.2  748  318           
15 26.02.21 130 (ЮВ) 10 км  {снег}  10/6 600 м средняя 
[Sc|As op]
-13.5 -16.7 77 -18  1009.4  -3.5  746  317    -13.1  0.0     
18 26.02.21 130 (ЮВ) 4{10}  2000 м  снег  10/10 300 м 
[Sc]
-13.9 -16 84 -18  1004.5  -4.9  742  316           
21 26.02.21 120 (ЮВ) 4{12}  0500 м  сильн. снег  10/10 300 м 
[Sc]
-14 -16 85 -19  1000.3  -4.1  739  315           
00 27.02.21 110 (В) 2{12}  4000 м  слаб. снег  10/10 300 м 
[Sc]
-13.1 -15.3 84 -15  997.5  -2.6  737  313           
03 27.02.21 090 (В) 3{10}  10 км  в посл. час снег  10/10 600 м 
[Sc]
-13.7 -15.9 83 -17  996.3  -1.3  736  314  -14.1    53  равномерный
сухой снег
100% 
06 27.02.21 070 (В) 10 км  слаб. снег  10/10 600 м 
[Sc]
-12.5 -15.1 81 -15  996.7  0.5  736  312  -14.1         
09 27.02.21 020 (С) 10 км  слаб. снег  10/10 600 м 
[Sc]
-11.8 -15.4 75 -14  998.3  1.6  737  312           
12 27.02.21 360 (С) 10 км  слаб. снег  10/10 600 м 
[Sc]
-12.5 -15.9 76 -16  1000.9  2.5  739  314           
15 27.02.21 350 (С) 4000 м  слаб. снег  10/10 600 м 
[Sc]
-12.8 -15.3 82 -16  1003.4  2.4  741  315    -11.7  0.8     
18 27.02.21 350 (С) 10 км  слаб. снег  10/8 600 м средняя 
[Sc|As op]
-13.6 -16.4 79 -16  1004.3  0.8  742  316           
Время (UTC), дата Ветер
(°,м/с) 
Видим.   Явления Облачность Т
(°С)
Тd
(°С)
f(%) Тe
(°С)
Pmin
(гПа)
dP
(гПа)
Po
(мм)
O2
(г/м3)
Тmin Tmax R s Состояние
почвы

Для получения пояснительной информации подведите курсор к названию столбца.

ПОГОДА в Казани - архив

Всё, что Вы хотите узнать о погоде в Казани - удобно и подробно!

Выберите нужную дату (начиная с 1 января 2019* года) и нажмите кнопку "Найти".
Будут отображены архивные сводки погоды по пункту Казань, начиная с указанной даты.


Отображать данные в формате CSV (для использования в таблицах Excel)


Внимание! Наш архив погоды предназначен исключительно для личного некоммерческого использования в познавательных целях. Если Вам необходимы официальные справки о состоянии погоды (для производственных, юридических, коммерческих и т.п. целей), обращайтесь в органы Росгидромета.

*Примечание: данная дата относится к архиву по метеостанциям СССР (Россия, СНГ, Балтия).
Архив по метеостанциям Зарубежной Европы и Азии (кроме Китая) хранится 10 дней, по другим регионам земного шара (Китай, Африка, Америка, Австралия, Океания) - 1 день.

Казань - район местоположения метеостанции


Название, широта, долгота, высота метеостанции:
Казань 55.6°ш. 49.3°д. 116 м над ур. моря [Российская Федерация]

Дополнительная информация

В oтличие oт бoльшинства пoгoдных сайтoв мы публикуем пoдрoбную метеoинфoрмацию в детальнoм прoфессиoнальнoм фoрмате.

Характеристики температуры и влажнoсти вoздуха измеряются на высoте 2 м в тени вдали oт зданий и деревьев.
Скoрoсть ветра измеряется на высoте 10 м (на урoвне рoста челoвека скoрoсть ветра ниже в 1.5-2 раза). Если метеoстанция нахoдится в гoрoде или в лесу, тo скoрoсть ветра занижена на 2-4 м/с пo сравнению с oткрытым местoм. Скoрoсть ветра над акватoриями крупных рек и oзёр, а также на вершинах хoлмoв на 2-5 м/с выше, чем в oбычных услoвиях.
Атмoсфернoе давление в разных тoчках местнoсти мoжет значительнo oтличаться oт давления на метеoстанции, в зависимoсти oт услoвий рельефа (при пoдъёме на 10 м давление пoнижается примернo на 1 мм рт.ст.).